| time (UTC) | temp F | wind direction | speed MPH | gust MPH | rain 1hr in | rain 24hr in | rain mn in | humidity % | barometer mb |
| 20260905150017 | 53 | 259 | 3.0 | 3.0 | 0.00 | 0.20 | 0.20 | 63 | 1100.0 |
| 20260905145037 | 52 | 262 | 3.0 | 3.0 | 0.00 | 0.20 | 0.20 | 64 | 1100.7 |
| 20260905144037 | 51 | 266 | 3.0 | 3.0 | 0.00 | 0.20 | 0.20 | 64 | 1101.4 |
| 20260905143037 | 50 | 269 | 3.0 | 3.0 | 0.00 | 0.20 | 0.20 | 65 | 1102.0 |
| 20260905142017 | 49 | 273 | 2.0 | 3.0 | 0.00 | 0.20 | 0.20 | 65 | 1102.7 |
| 20260905141016 | 48 | 276 | 2.0 | 3.0 | 0.00 | 0.20 | 0.20 | 66 | 1103.4 |
| 20260905140037 | 48 | 279 | 2.0 | 3.0 | 0.00 | 0.20 | 0.20 | 67 | 1104.0 |
| 20260905140016 | 72 | 270 | 10.0 | 20.0 | 0.00 | 0.09 | 0.09 | 49 | 1020.5 |
| 20260905135017 | 47 | 282 | 2.0 | 3.0 | 0.00 | 0.20 | 0.20 | 67 | 1104.7 |
| 20260905134017 | 46 | 286 | 2.0 | 3.0 | 0.00 | 0.20 | 0.20 | 68 | 1105.3 |
| 20260905133037 | 45 | 289 | 2.0 | 2.0 | 0.00 | 0.20 | 0.20 | 68 | 1105.9 |
| 20260905132037 | 44 | 292 | 2.0 | 2.0 | 0.00 | 0.20 | 0.20 | 69 | 1106.5 |
| 20260905131016 | 73 | 270 | 6.0 | 12.0 | 0.00 | 0.09 | 0.09 | 55 | 1020.4 |
| 20260905130017 | 43 | 298 | 2.0 | 2.0 | 0.00 | 0.20 | 0.20 | 70 | 1107.7 |
| 20260905125017 | 42 | 301 | 2.0 | 2.0 | 0.00 | 0.20 | 0.20 | 70 | 1108.3 |
| 20260905124017 | 41 | 304 | 2.0 | 2.0 | 0.00 | 0.20 | 0.20 | 71 | 1108.9 |
| 20260905123017 | 40 | 307 | 1.0 | 2.0 | 0.00 | 0.20 | 0.20 | 71 | 1109.4 |
| 20260905123015 | 68 | 315 | 4.0 | 9.0 | 0.00 | 0.09 | 0.09 | 66 | 1020.4 |
| 20260905122038 | 68 | 293 | 6.0 | 11.0 | 0.00 | 0.09 | 0.09 | 67 | 1020.4 |
| 20260905121037 | 67 | 315 | 4.0 | 10.0 | 0.00 | 0.09 | 0.09 | 68 | 1020.4 |
| 20260905120038 | 67 | 315 | 5.0 | 11.0 | 0.00 | 0.09 | 0.09 | 67 | 1020.6 |
| 20260905115017 | 67 | 293 | 3.0 | 11.0 | 0.00 | 0.09 | 0.09 | 66 | 1020.5 |
| 20260905114017 | 37 | 320 | 1.0 | 1.0 | 0.00 | 0.20 | 0.20 | 73 | 1112.0 |
| 20260905113017 | 68 | 293 | 4.0 | 11.0 | 0.00 | 0.09 | 0.09 | 67 | 1020.7 |
| 20260905112039 | 67 | 293 | 5.0 | 11.0 | 0.00 | 0.09 | 0.09 | 66 | 1020.7 |
| 20260905111018 | 67 | 270 | 7.0 | 15.0 | 0.00 | 0.09 | 0.09 | 65 | 1020.9 |
| 20260905110037 | 34 | 329 | 1.0 | 1.0 | 0.00 | 0.20 | 0.20 | 75 | 1113.9 |
| 20260905105039 | 67 | 248 | 7.0 | 11.0 | 0.00 | 0.09 | 0.09 | 68 | 1020.8 |
| 20260905105017 | 34 | 331 | 1.0 | 1.0 | 0.00 | 0.20 | 0.20 | 75 | 1114.3 |
| 20260905104017 | 67 | 270 | 7.0 | 14.0 | 0.00 | 0.09 | 0.09 | 69 | 1021.0 |
| 20260905103018 | 65 | 270 | 6.0 | 12.0 | 0.00 | 0.09 | 0.09 | 72 | 1020.9 |
| 20260905102017 | 65 | 293 | 5.0 | 12.0 | 0.00 | 0.09 | 0.09 | 76 | 1021.1 |
| 20260905101037 | 32 | 339 | 1.0 | 1.0 | 0.00 | 0.20 | 0.20 | 77 | 1115.9 |
| 20260905100017 | 32 | 341 | 1.0 | 1.0 | 0.00 | 0.20 | 0.20 | 77 | 1116.2 |
| 20260905095017 | 65 | 293 | 5.0 | 11.0 | 0.00 | 0.09 | 0.09 | 74 | 1021.2 |
| 20260905094017 | 31 | 344 | 0.0 | 1.0 | 0.00 | 0.20 | 0.20 | 77 | 1116.9 |
| 20260905093017 | 31 | 346 | 0.0 | 0.0 | 0.00 | 0.20 | 0.20 | 78 | 1117.2 |
| 20260905092037 | 31 | 347 | 0.0 | 0.0 | 0.00 | 0.20 | 0.20 | 78 | 1117.5 |
| 20260905092017 | 63 | 270 | 5.0 | 10.0 | 0.00 | 0.09 | 0.09 | 78 | 1021.1 |
| 20260905091017 | 63 | 225 | 5.0 | 8.0 | 0.00 | 0.09 | 0.09 | 78 | 1021.2 |
| 20260905090037 | 64 | 248 | 7.0 | 12.0 | 0.00 | 0.09 | 0.09 | 78 | 1021.2 |
| 20260905085017 | 30 | 351 | 0.0 | 0.0 | 0.00 | 0.20 | 0.20 | 79 | 1118.3 |
| 20260905084017 | 63 | 225 | 5.0 | 9.0 | 0.00 | 0.09 | 0.09 | 82 | 1021.0 |
| 20260905083017 | 30 | 354 | 0.0 | 0.0 | 0.00 | 0.20 | 0.20 | 79 | 1118.7 |
| 20260905082017 | 30 | 355 | 0.0 | 0.0 | 0.00 | 0.20 | 0.20 | 79 | 1118.9 |
| 20260905081017 | 61 | 270 | 5.0 | 8.0 | 0.00 | 0.09 | 0.09 | 88 | 1020.9 |
| 20260905080017 | 30 | 356 | 0.0 | 0.0 | 0.00 | 0.20 | 0.20 | 79 | 1119.3 |
| 20260905075037 | 59 | 248 | 7.0 | 12.0 | 0.00 | 0.09 | 0.09 | 90 | 1020.6 |
| 20260905074017 | 59 | 225 | 3.0 | 7.0 | 0.00 | 0.09 | 0.09 | 91 | 1020.5 |
| 20260905073021 | 59 | 270 | 3.0 | 9.0 | 0.00 | 0.09 | 0.09 | 92 | 1020.2 |
| 20260905073017 | 31 | 358 | 0.0 | 0.0 | 0.00 | 0.20 | 0.20 | 80 | 1119.7 |
| 20260905072017 | 59 | 293 | 1.0 | 2.0 | 0.00 | 0.09 | 0.09 | 92 | 1020.2 |
| 20260905071017 | 58 | 203 | 3.0 | 5.0 | 0.00 | 0.09 | 0.09 | 92 | 1020.1 |
| 20260905070037 | 58 | 225 | 2.0 | 4.0 | 0.00 | 0.09 | 0.09 | 92 | 1020.0 |
| 20260905065017 | 58 | 203 | 2.0 | 4.0 | 0.00 | 0.09 | 0.09 | 92 | 1019.9 |
| 20260905064017 | 32 | 360 | 0.0 | 0.0 | 0.00 | 0.20 | 0.20 | 80 | 1120.0 |
| 20260905063017 | 57 | 158 | 3.0 | 6.0 | 0.00 | 0.09 | 0.09 | 92 | 1019.7 |
| 20260905062017 | 57 | 158 | 2.0 | 4.0 | 0.00 | 0.09 | 0.09 | 92 | 1019.6 |
| 20260905061017 | 56 | 158 | 2.0 | 4.0 | 0.00 | 0.09 | 0.09 | 92 | 1019.6 |
| 20260905060017 | 34 | 360 | 0.0 | 0.0 | 0.00 | 0.20 | 0.20 | 80 | 1119.9 |
| 20260905055017 | 55 | 0.0 | 0.0 | 0.00 | 0.09 | 0.09 | 91 | 1019.4 | |
| 20260905054017 | 35 | 359 | 0.0 | 0.0 | 0.00 | 0.20 | 0.20 | 80 | 1119.8 |
| 20260905053017 | 55 | 0.0 | 1.0 | 0.00 | 0.09 | 0.09 | 91 | 1019.4 | |
| 20260905052017 | 36 | 358 | 0.0 | 0.0 | 0.00 | 0.20 | 0.20 | 80 | 1119.6 |
| 20260905051017 | 37 | 357 | 0.0 | 0.0 | 0.00 | 0.20 | 0.20 | 80 | 1119.5 |
| 20260905050017 | 38 | 357 | 0.0 | 0.0 | 0.00 | 0.20 | 0.20 | 79 | 1119.3 |
| 20260905045017 | 54 | 0.0 | 0.0 | 0.00 | 0.09 | 0.09 | 90 | 1019.0 | |
| 20260905044017 | 54 | 0.0 | 0.0 | 0.00 | 0.09 | 0.09 | 90 | 1018.8 | |
| 20260905043037 | 40 | 354 | 0.0 | 0.0 | 0.00 | 0.20 | 0.20 | 79 | 1118.8 |
| 20260905043018 | 54 | 0.0 | 1.0 | 0.00 | 0.09 | 0.09 | 90 | 1018.6 | |
| 20260905042037 | 41 | 353 | 0.0 | 0.0 | 0.00 | 0.20 | 0.20 | 79 | 1118.6 |
| 20260905041017 | 41 | 352 | 0.0 | 0.0 | 0.00 | 0.20 | 0.20 | 79 | 1118.4 |
| 20260905040017 | 42 | 351 | 0.0 | 0.0 | 0.00 | 0.20 | 0.20 | 78 | 1118.2 |
| 20260905035057 | 54 | 0.0 | 1.0 | 0.00 | 0.09 | 0.09 | 88 | 1018.6 | |
| 20260905034017 | 54 | 0.0 | 1.0 | 0.01 | 0.09 | 0.09 | 88 | 1018.1 | |
| 20260905033017 | 45 | 347 | 0.0 | 0.0 | 0.00 | 0.20 | 0.20 | 78 | 1117.4 |
| 20260905032017 | 45 | 345 | 0.0 | 1.0 | 0.00 | 0.20 | 0.20 | 78 | 1117.0 |
| 20260905031017 | 46 | 344 | 0.0 | 1.0 | 0.00 | 0.20 | 0.20 | 77 | 1116.7 |
| 20260905030017 | 47 | 342 | 1.0 | 1.0 | 0.00 | 0.20 | 0.20 | 77 | 1116.4 |
| 20260905025017 | 48 | 340 | 1.0 | 1.0 | 0.00 | 0.20 | 0.20 | 77 | 1116.1 |
| 20260905024017 | 57 | 0.0 | 2.0 | 0.08 | 0.09 | 0.09 | 85 | 1018.4 | |
| 20260905023017 | 50 | 336 | 1.0 | 1.0 | 0.00 | 0.20 | 0.20 | 76 | 1115.3 |
| 20260905022017 | 51 | 334 | 1.0 | 1.0 | 0.00 | 0.20 | 0.20 | 76 | 1114.9 |
| 20260905021017 | 52 | 332 | 1.0 | 1.0 | 0.00 | 0.20 | 0.20 | 75 | 1114.5 |
| 20260905020017 | 52 | 330 | 1.0 | 1.0 | 0.00 | 0.20 | 0.20 | 75 | 1114.1 |
| 20260905015017 | 53 | 328 | 1.0 | 1.0 | 0.01 | 0.20 | 0.20 | 75 | 1113.7 |
| 20260905014017 | 54 | 326 | 1.0 | 1.0 | 0.02 | 0.20 | 0.20 | 74 | 1113.2 |
| 20260905013017 | 55 | 323 | 1.0 | 1.0 | 0.03 | 0.20 | 0.20 | 74 | 1112.7 |
| 20260905012017 | 56 | 321 | 1.0 | 1.0 | 0.04 | 0.20 | 0.20 | 73 | 1112.3 |
| 20260905011017 | 57 | 318 | 1.0 | 1.0 | 0.05 | 0.20 | 0.20 | 73 | 1111.8 |
| 20260905010037 | 57 | 316 | 1.0 | 1.0 | 0.06 | 0.20 | 0.20 | 73 | 1111.3 |
| 20260905005037 | 58 | 313 | 1.0 | 2.0 | 0.06 | 0.20 | 0.19 | 72 | 1110.8 |
| 20260905004017 | 59 | 311 | 1.0 | 2.0 | 0.06 | 0.20 | 0.18 | 72 | 1110.2 |
| 20260905003017 | 60 | 308 | 1.0 | 2.0 | 0.07 | 0.20 | 0.17 | 71 | 1109.7 |
| 20260905002016 | 61 | 305 | 2.0 | 2.0 | 0.07 | 0.20 | 0.16 | 71 | 1109.1 |
| 20260905001017 | 61 | 302 | 2.0 | 2.0 | 0.07 | 0.20 | 0.15 | 70 | 1108.6 |
| 20260905000017 | 62 | 299 | 2.0 | 2.0 | 0.07 | 0.20 | 0.14 | 70 | 1108.0 |
| 20260904235037 | 63 | 296 | 2.0 | 2.0 | 0.07 | 0.20 | 0.13 | 69 | 1107.4 |
| 20260904234017 | 63 | 293 | 2.0 | 2.0 | 0.07 | 0.20 | 0.12 | 69 | 1106.8 |
| 20260904233017 | 64 | 290 | 2.0 | 2.0 | 0.06 | 0.20 | 0.10 | 68 | 1106.2 |
| 20260904232017 | 65 | 287 | 2.0 | 2.0 | 0.06 | 0.20 | 0.09 | 68 | 1105.6 |
| 20260904231037 | 65 | 284 | 2.0 | 3.0 | 0.06 | 0.20 | 0.08 | 67 | 1105.0 |
| 20260904230017 | 66 | 281 | 2.0 | 3.0 | 0.07 | 0.20 | 0.07 | 67 | 1104.3 |
| 20260904225017 | 66 | 277 | 2.0 | 3.0 | 0.06 | 0.20 | 0.06 | 66 | 1103.7 |
| 20260904224017 | 67 | 274 | 2.0 | 3.0 | 0.05 | 0.20 | 0.05 | 66 | 1103.0 |
| 20260904223017 | 67 | 271 | 2.0 | 3.0 | 0.04 | 0.20 | 0.04 | 65 | 1102.3 |
| 20260904222017 | 68 | 267 | 3.0 | 3.0 | 0.03 | 0.20 | 0.03 | 65 | 1101.7 |
| 20260904221017 | 68 | 264 | 3.0 | 3.0 | 0.02 | 0.20 | 0.02 | 64 | 1101.0 |
| 20260904220017 | 68 | 260 | 3.0 | 3.0 | 0.00 | 0.20 | 0.00 | 63 | 1100.3 |
| 20260904215017 | 69 | 257 | 3.0 | 3.0 | 0.00 | 0.20 | 0.20 | 63 | 1099.6 |
| 20260904214017 | 69 | 253 | 3.0 | 4.0 | 0.00 | 0.20 | 0.20 | 62 | 1098.9 |
| 20260904213017 | 69 | 250 | 3.0 | 4.0 | 0.00 | 0.20 | 0.20 | 62 | 1098.2 |
| 20260904212017 | 69 | 246 | 3.0 | 4.0 | 0.00 | 0.20 | 0.20 | 61 | 1097.5 |
| 20260904211017 | 73 | 225 | 2.0 | 4.0 | 0.00 | 0.00 | 0.00 | 65 | 1013.6 |
| 20260904210017 | 73 | 248 | 3.0 | 7.0 | 0.00 | 0.00 | 0.00 | 65 | 1013.5 |
| 20260904205017 | 70 | 235 | 3.0 | 4.0 | 0.00 | 0.20 | 0.20 | 59 | 1095.3 |
| 20260904204037 | 73 | 203 | 4.0 | 9.0 | 0.00 | 0.00 | 0.00 | 65 | 1013.3 |
| 20260904203017 | 70 | 227 | 4.0 | 4.0 | 0.00 | 0.20 | 0.20 | 58 | 1093.8 |
| 20260904202017 | 70 | 224 | 4.0 | 5.0 | 0.00 | 0.20 | 0.20 | 57 | 1093.0 |
| 20260904201017 | 70 | 220 | 4.0 | 5.0 | 0.00 | 0.20 | 0.20 | 57 | 1092.3 |
| 20260904200017 | 73 | 225 | 5.0 | 12.0 | 0.00 | 0.00 | 0.00 | 66 | 1013.1 |
| 20260904195038 | 73 | 180 | 3.0 | 5.0 | 0.00 | 0.00 | 0.00 | 65 | 1013.1 |
| 20260904194016 | 73 | 203 | 4.0 | 6.0 | 0.00 | 0.00 | 0.00 | 65 | 1012.9 |
| 20260904193017 | 74 | 180 | 3.0 | 6.0 | 0.00 | 0.00 | 0.00 | 64 | 1013.0 |
| 20260904192017 | 69 | 201 | 4.0 | 5.0 | 0.00 | 0.20 | 0.20 | 53 | 1088.4 |
| 20260904191057 | 69 | 197 | 5.0 | 5.0 | 0.00 | 0.20 | 0.20 | 53 | 1087.7 |
| 20260904190017 | 69 | 193 | 5.0 | 6.0 | 0.00 | 0.20 | 0.20 | 52 | 1086.9 |
| 20260904185017 | 75 | 203 | 4.0 | 8.0 | 0.00 | 0.00 | 0.00 | 61 | 1012.9 |
| 20260904184017 | 68 | 185 | 5.0 | 6.0 | 0.00 | 0.20 | 0.20 | 51 | 1085.3 |
| 20260904183017 | 67 | 181 | 5.0 | 6.0 | 0.00 | 0.20 | 0.20 | 50 | 1084.6 |
| 20260904182017 | 67 | 177 | 5.0 | 6.0 | 0.00 | 0.20 | 0.20 | 49 | 1083.8 |
| 20260904181016 | 66 | 173 | 5.0 | 6.0 | 0.00 | 0.20 | 0.20 | 49 | 1083.0 |
| 20260904180017 | 66 | 169 | 5.0 | 6.0 | 0.00 | 0.20 | 0.20 | 48 | 1082.2 |
| 20260904175017 | 65 | 165 | 5.0 | 7.0 | 0.00 | 0.20 | 0.20 | 48 | 1081.5 |
| 20260904174016 | 79 | 225 | 6.0 | 12.0 | 0.00 | 0.00 | 0.00 | 56 | 1012.7 |
| 20260904173017 | 64 | 157 | 6.0 | 7.0 | 0.00 | 0.20 | 0.20 | 46 | 1079.9 |
| 20260904172017 | 64 | 154 | 6.0 | 7.0 | 0.00 | 0.20 | 0.20 | 46 | 1079.2 |
| 20260904171017 | 63 | 150 | 6.0 | 7.0 | 0.00 | 0.20 | 0.20 | 45 | 1078.4 |
| 20260904170037 | 62 | 146 | 6.0 | 7.0 | 0.00 | 0.20 | 0.20 | 44 | 1077.6 |
| 20260904165037 | 62 | 142 | 6.0 | 7.0 | 0.00 | 0.20 | 0.20 | 44 | 1076.9 |
| 20260904164017 | 61 | 138 | 6.0 | 7.0 | 0.00 | 0.20 | 0.20 | 43 | 1076.1 |
| 20260904163017 | 60 | 134 | 6.0 | 8.0 | 0.00 | 0.20 | 0.20 | 42 | 1075.4 |
| 20260904162017 | 59 | 131 | 6.0 | 8.0 | 0.00 | 0.20 | 0.20 | 42 | 1074.6 |
| 20260904161017 | 59 | 127 | 6.0 | 8.0 | 0.00 | 0.20 | 0.20 | 41 | 1073.9 |
| 20260904160017 | 58 | 123 | 7.0 | 8.0 | 0.00 | 0.20 | 0.20 | 41 | 1073.1 |
| 20260904155017 | 57 | 119 | 7.0 | 8.0 | 0.00 | 0.20 | 0.20 | 40 | 1072.4 |
| 20260904154022 | 81 | 203 | 7.0 | 15.0 | 0.00 | 0.04 | 0.00 | 53 | 1013.0 |
| 20260904154017 | 56 | 116 | 7.0 | 8.0 | 0.00 | 0.20 | 0.20 | 39 | 1071.7 |
| 20260904153017 | 55 | 112 | 7.0 | 8.0 | 0.00 | 0.20 | 0.20 | 39 | 1070.9 |
| 20260904152017 | 55 | 108 | 7.0 | 8.0 | 0.00 | 0.20 | 0.20 | 38 | 1070.2 |
| 20260904151041 | 82 | 203 | 10.0 | 16.0 | 0.00 | 0.06 | 0.00 | 52 | 1013.4 |
| 20260904151037 | 54 | 105 | 7.0 | 9.0 | 0.00 | 0.20 | 0.20 | 37 | 1069.5 |